Miscellaneous Local Product
Issued by NWS North Platte, NE

Home | Current Version | Previous Version | Text Only | Print | Product List | Glossary On
Versions: 1 2 3 4 5 6 7 8 9 10 11 12 13 14 15 16 17 18 19 20 21 22 23 24 25 26 27 28 29 30 31 32 33 34 35 36 37 38 39 40 41 42 43 44 45 46 47 48 49 50
000
AXUS43 KLBF 020410
MISLBF


WESTERN AND NORTH CENTRAL NEBRASKA HOURLY WEATHER ROUNDUP
NATIONAL WEATHER SERVICE NORTH PLATTE NE
1100 PM CDT TUE SEP 01 2015

NOTE: "FAIR" INDICATES FEW OR NO CLOUDS BELOW 12,000 FEET WITH NO
SIGNIFICANT WEATHER AND/OR OBSTRUCTIONS TO VISIBILITY.

NOTE: STATIONS NOT REPORTING VARIABLES SUCH AS SKY/WEATHER OR
PRESSURE ARE PROVIDED BY THE NEBRASKA DEPARTMENT OF
ROADS...RAWS...AND APRS NETWORKS...AND ARE NOT UNDER
NATIONAL WEATHER SERVICE QUALITY CONTROL.

...OBSERVATIONS IN AND NEAR THE EASTERN PANHANDLE OF NEBRASKA...

CITY           SKY/WX    TMP DP  RH WIND       PRES   REMARKS
PINE RIDGE     CLEAR     57  46  66 CALM      29.89R
CHADRON        PTCLDY    63  47  55 CALM      29.88R
ALLIANCE       PTCLDY    71  49  45 S13       29.94R
SIDNEY         CLEAR     70  46  42 S9        30.01R
CRESCENT LAKE    N/A     71  50  46 S6          N/A
BIG SPRINGS      N/A     73  55  52 S8          N/A
$$

...OBSERVATIONS IN NORTH CENTRAL NEBRASKA...

CITY           SKY/WX    TMP DP  RH WIND       PRES   REMARKS
VALENTINE      CLEAR     75  59  57 S9        29.87R
THEDFORD       CLEAR     75  65  69 S10       29.92R
AINSWORTH      CLEAR     73  63  71 S9        29.89R
O`NEILL        CLEAR     74  66  75 S7        29.88S
ORD            CLEAR     69  64  84 E5        29.88S
BROKEN BOW     CLEAR     68  64  87 CALM      29.91R
SPRINGVIEW       N/A     69  65  89 CALM        N/A
SARGENT          N/A     71  64  79 CALM        N/A
CHAMBERS         N/A     71  64  80 S3          N/A
EWING            N/A     72  65  78 CALM        N/A
$$

...OBSERVATIONS IN SOUTHWEST NEBRASKA AND FAR NORTHEAST COLORADO...

CITY           SKY/WX    TMP DP  RH WIND       PRES   REMARKS
WRAY           CLOUDY    76  56  49 S14G21    29.98S
HOLYOKE        FAIR      68  55  64 S10       29.98R
IMPERIAL       CLEAR     73  53  49 S7        29.95R
OGALLALA       CLEAR     73  51  46 S6        29.94R
NORTH PLATTE   CLEAR     66  64  93 E6        29.92R
MCCOOK         CLEAR     78  57  48 S6        29.92S
LEXINGTON      CLEAR     74  67  78 SE3       29.92R
PAXTON           N/A     68  58  71 S3          N/A
BRADY            N/A     69  64  85 CALM        N/A
CALLAWAY         N/A     66  64  92 S7          N/A
$$

...OBSERVATIONS IN CENTRAL LINCOLN COUNTY AREA...

CITY           SKY/WX    TMP DP  RH WIND       PRES   REMARKS
N.P. AIRPORT   CLEAR     66  64  93 E6        29.92R
N.P. DOWNTOWN    N/A     76  64  65 CALM        N/A
N.P. SOUTHEAST   N/A     74  63  67 SE3         N/A
N.P. HILLCREST   N/A     71  65  83 E6          N/A
$$

...SOME OBSERVATIONS FROM AROUND THE REGION...

CITY           SKY/WX    TMP DP  RH WIND       PRES   REMARKS
DENVER         MOCLDY    67  46  47 S12       30.11R
LARAMIE        MOCLDY    56  42  59 VRB6      30.24R
CHEYENNE       PTCLDY    68  39  34 W15       30.13R
SCOTTSBLUFF    PTCLDY    66  52  60 E8        29.94R
RAPID CITY     CLEAR     63  55  75 NW7       29.88R
PIERRE         CLEAR     73  67  81 SE8       29.79S
WINNER         FAIR      74  66  76 SE12      29.82S
SIOUX FALLS    PTCLDY    75  71  87 S7        29.87R
OMAHA          MOCLDY    81  67  62 S18       29.92R
GRAND ISLAND   CLEAR     79  64  60 S13       29.91R
KANSAS CITY    CLEAR     73  66  78 S10       30.02S
WICHITA        MOCLDY    79  67  66 S15       29.99R
HAYS           PTCLDY    82  57  42 S15       29.93S
LIBERAL        CLOUDY    79  54  41 S9        30.02R
GOODLAND       PTCLDY    73  59  61 S9        29.99S
$$



USA.gov is the U.S. government's official web portal to all federal, state and local government web resources and services.